[[{"header":{"parameterUnit":"m.s-1","parameterCategory":1,"la1":30.2991,"la2":30.254,"lo1":-89.0895,"lo2":-89.0444,"dy":0.0017,"dx":0.0017,"nx":28,"ny":28,"refTime":"2024-08-31T03:00:00:Z","depth":0,"parameterNumber":2,"parameterNumberName":"U-component_of_WINDS"},"data":[0,0,0,0,0,0,0,0,0,0,0,0,0,0,0,0,0,0,0,0,0,0,0,0,0,0,0,0,0,0,0,0,0,0,0,0,0,0,0,0,0,0,0,0,0,0,0,0,0,0,0,0,0,0,0,0,0,0,-3.6183,-3.6183,0,-3.6194,-3.6194,-3.6194,-3.6121,-3.6119,-3.6117,-3.6115,-3.6126,-3.6128,-3.613,0,0,0,0,0,0,0,0,0,0,0,0,0,-3.61,-3.6101,-3.6183,-3.6183,-3.6183,-3.6194,-3.6194,-3.6194,-3.6121,-3.6119,-3.6116,-3.6114,-3.6125,-3.6127,-3.613,0,0,0,0,0,0,0,0,0,0,0,0,0,-3.6126,-3.6102,-3.6183,-3.6148,-3.6145,-3.6194,-3.6194,-3.6194,-3.6122,-3.6119,-3.6116,-3.6113,-3.6124,-3.6127,-3.613,-3.6213,0,0,-3.6141,-3.6142,0,0,0,0,0,0,0,0,-3.6124,-3.6129,-3.6153,-3.6151,-3.6147,-3.6153,-3.6168,-3.62,-3.6123,-3.6131,-3.6115,-3.6111,-3.6137,-3.6139,-3.6148,-3.6213,-3.6214,-3.6141,-3.6143,-3.6144,-3.6145,0,0,0,0,0,0,0,-3.6123,-3.6128,-3.6187,-3.6154,-3.615,-3.6132,-3.6132,-3.6174,-3.6151,-3.613,-3.6124,-3.6127,-3.6135,-3.6145,-3.6148,-3.6214,-3.6141,-3.6144,-3.6146,-3.6147,-3.6347,-3.635,0,0,0,0,0,0,-3.6125,-3.6127,-3.6187,-3.6187,-3.6128,-3.6136,-3.6136,-3.6154,-3.615,-3.6147,-3.6129,-3.6123,-3.6141,-3.6144,-3.6148,-3.6243,-3.6144,-3.6147,-3.6149,-3.6343,-3.6347,-3.6351,0,0,0,0,0,0,-3.6124,-3.6131,-3.6186,-3.6156,-3.6161,-3.6141,-3.6161,-3.6156,-3.6166,-3.615,-3.6146,-3.6144,-3.6138,-3.6143,-3.6197,-3.6242,-3.6149,-3.6152,-3.6339,-3.6345,-3.6349,-3.6434,0,0,0,0,0,0,-3.6122,-3.6131,-3.6162,-3.6157,-3.6163,-3.6236,-3.6164,-3.6158,-3.6172,-3.6164,-3.6162,-3.6159,-3.6136,-3.6192,-3.62,-3.6245,-3.6154,-3.6335,-3.6342,-3.6348,-3.6427,-3.6441,-3.6454,0,0,0,0,0,-3.6119,-3.6186,-3.6164,-3.6172,-3.6202,-3.6238,-3.6242,-3.6214,-3.6176,-3.6206,-3.6197,-3.6159,-3.6237,-3.6199,-3.6207,-3.6253,-3.6332,-3.634,-3.6347,-3.6421,-3.6439,-3.6453,0,0,0,0,0,0,-3.6196,-3.6184,-3.616,-3.6227,-3.6235,-3.6226,-3.6264,-3.6234,-3.6252,-3.6244,-3.6209,-3.6209,-3.6269,-3.6267,-3.6225,-3.6332,-3.6278,-3.6287,-3.6331,-3.6348,-3.6361,-3.6359,-3.6157,0,0,0,0,0,-3.6222,-3.6252,-3.624,-3.6301,-3.6305,-3.6285,-3.6299,-3.6278,-3.6284,-3.6286,-3.628,-3.6287,-3.6313,-3.633,-3.6353,-3.6427,-3.6426,-3.6464,-3.6477,-3.6488,-3.6496,-3.6534,-3.655,-3.6375,-3.6375,-3.6375,0,0,-3.6273,-3.627,-3.6292,-3.6316,-3.6319,-3.6351,-3.6287,-3.6324,-3.6348,-3.6292,-3.6341,-3.6338,-3.6344,-3.6408,-3.6436,-3.6408,-3.6544,-3.6497,-3.6506,-3.6508,-3.6543,-3.656,-3.6574,-3.6381,-3.638,-3.6379,0,0,-3.6383,-3.6385,-3.6435,-3.6439,-3.6445,-3.643,-3.6443,-3.6439,-3.6434,-3.6484,-3.6442,-3.6471,-3.6516,-3.6521,-3.653,-3.6644,-3.661,-3.6653,-3.6721,-3.6759,-3.6772,-3.6784,-3.6824,-3.6838,-3.6661,-3.6662,-3.6662,0,-3.6446,-3.6494,-3.6464,-3.6504,-3.6516,-3.6467,-3.6517,-3.6523,-3.6536,-3.6545,-3.6514,-3.657,-3.657,-3.6635,-3.6663,-3.6672,-3.6684,-3.6652,-3.6773,-3.6785,-3.6795,-3.6832,-3.6847,-3.6666,-3.6666,-3.6665,-3.6665,0,-3.657,-3.6604,-3.6644,-3.6657,-3.6674,-3.6719,-3.6696,-3.6717,-3.6694,-3.6684,-3.6735,-3.6734,-3.6756,-3.677,-3.6749,-3.6832,-3.6814,-3.6779,-3.6722,-3.6817,-3.6852,-3.6866,-3.6674,-3.6672,-3.667,-3.6669,0,0,-3.6728,-3.6725,-3.674,-3.6745,-3.6749,-3.6774,-3.6817,-3.6838,-3.6856,-3.6867,-3.6902,-3.6942,-3.6909,-3.692,-3.6898,-3.6932,-3.7021,-3.6892,-3.6892,-3.6915,-3.7111,-3.7136,-3.7153,-3.6999,-3.7002,-3.7004,-3.711,0,-3.6834,-3.6907,-3.6882,-3.6956,-3.6986,-3.6941,-3.6979,-3.6985,-3.6976,-3.7001,-3.6992,-3.702,-3.6976,-3.6981,-3.7013,-3.7003,-3.7059,-3.6996,-3.703,-3.7032,-3.7028,-3.7171,-3.7198,-3.7298,-3.7123,-3.7126,-3.7127,0,-3.6967,-3.6983,-3.706,-3.7058,-3.707,-3.7104,-3.7121,-3.7146,-3.7152,-3.7144,-3.7156,-3.7128,-3.717,-3.7116,-3.7173,-3.713,-3.7143,-3.7141,-3.7144,-3.7145,-3.7084,-3.7174,-3.7329,-3.7343,-3.7148,-3.7147,-3.7145,0,-3.7072,-3.7113,-3.7164,-3.7171,-3.717,-3.7195,-3.7196,-3.7199,-3.7213,-3.7229,-3.7238,-3.7259,-3.727,-3.7287,-3.7265,-3.7228,-3.7325,-3.7269,-3.7318,-3.7319,-3.7339,-3.7338,-3.7497,-3.7351,-3.7351,-3.7351,-3.735,0,-3.7192,-3.724,-3.7212,-3.7243,-3.7296,-3.7268,-3.7321,-3.7317,-3.7321,-3.735,-3.7313,-3.7342,-3.7313,-3.7339,-3.7323,-3.7372,-3.7378,-3.7371,-3.7366,-3.7374,-3.7374,-3.738,-3.7372,-3.7355,-3.7354,-3.7353,-3.7352,0,-3.7317,-3.73,-3.7352,-3.7348,-3.7348,-3.7387,-3.7383,-3.7412,-3.7401,-3.7439,-3.7447,-3.743,-3.7459,-3.744,-3.7469,-3.7458,-3.7522,-3.7508,-3.752,-3.7515,-3.7565,-3.756,-3.7732,-3.7752,-3.7595,-3.7597,-3.7598,0,-3.7394,-3.743,-3.7429,-3.7446,-3.745,-3.7478,-3.7493,-3.7467,-3.7484,-3.7494,-3.7521,-3.7547,-3.7566,-3.7614,-3.7605,-3.7627,-3.7612,-3.7671,-3.7615,-3.7622,-3.7611,-3.7609,-3.7612,-3.7682,-3.7684,-3.7685,-3.7686,0,-3.7531,-3.7521,-3.7543,-3.7563,-3.7582,-3.7596,-3.7608,-3.7624,-3.7598,-3.7619,-3.7648,-3.7663,-3.7693,-3.7718,-3.7737,-3.7738,-3.7708,-3.7704,-3.7716,-3.7723,-3.7728,-3.7725,-3.7548,-3.77,-3.7699,-3.7698,-3.7697,-3.7696,-3.7633,-3.7663,-3.7667,-3.7694,-3.77,-3.7711,-3.7738,-3.7731,-3.7755,-3.7777,-3.776,-3.7795,-3.78,-3.7822,-3.7827,-3.7853,-3.7829,-3.7848,-3.7852,-3.7856,-3.7862,-3.7726,-3.7857,-3.7857,-3.7856,-3.7856,-3.7856,0,-3.7767,-3.7768,-3.7793,-3.781,-3.7831,-3.7801,-3.7813,-3.7832,-3.7862,-3.787,-3.789,-3.7923,-3.7948,-3.7942,-3.7964,-3.7987,-3.7973,-3.7993,-3.799,-3.7991,-3.7883,-3.787,-3.8003,-3.8003,-3.8003,-3.8003,-3.8003,-3.8003,-3.784,-3.7888,-3.7879,-3.793,-3.7931,-3.7964,-3.7973,-3.7983,-3.7989,-3.8028,-3.8049,-3.8044,-3.8046,-3.8069,-3.809,-3.8088,-3.8097,-3.8122,-3.8114,-3.8013,-3.7998,-3.7984,-3.7971,-3.8124,-3.8124,-3.8219,-3.822,-3.822]},{"header":{"parameterUnit":"m.s-1","parameterCategory":1,"la1":30.2991,"la2":30.254,"lo1":-89.0895,"lo2":-89.0444,"dy":0.0017,"dx":0.0017,"nx":28,"ny":28,"refTime":"2024-08-31T03:00:00:Z","depth":0,"parameterNumber":3,"parameterNumberName":"V-component_of_WINDS"},"data":[0,0,0,0,0,0,0,0,0,0,0,0,0,0,0,0,0,0,0,0,0,0,0,0,0,0,0,0,0,0,0,0,0,0,0,0,0,0,0,0,0,0,0,0,0,0,0,0,0,0,0,0,0,0,0,0,0,0,2.7347,2.7348,0,2.7471,2.7473,2.7474,2.7513,2.7513,2.7512,2.7512,2.7637,2.7641,2.7645,0,0,0,0,0,0,0,0,0,0,0,0,0,2.7143,2.7147,2.7347,2.7349,2.735,2.7471,2.7473,2.7474,2.7514,2.7513,2.7512,2.7512,2.7636,2.7641,2.7645,0,0,0,0,0,0,0,0,0,0,0,0,0,2.7246,2.7148,2.7347,2.7384,2.7389,2.7471,2.7473,2.7475,2.7514,2.7513,2.7512,2.7511,2.7635,2.764,2.7646,2.7699,0,0,2.7664,2.7666,0,0,0,0,0,0,0,0,2.724,2.7253,2.7377,2.7382,2.7387,2.7476,2.7447,2.755,2.7514,2.7466,2.7512,2.7511,2.7584,2.7594,2.7619,2.7705,2.771,2.7664,2.7668,2.767,2.7672,0,0,0,0,0,0,0,2.7233,2.7248,2.7396,2.7379,2.7385,2.7395,2.7408,2.7467,2.7529,2.747,2.7474,2.7488,2.7587,2.7614,2.7623,2.7712,2.7664,2.7669,2.7673,2.7675,2.7848,2.7849,0,0,0,0,0,0,2.722,2.7242,2.7392,2.74,2.731,2.7399,2.7414,2.7448,2.7528,2.7539,2.7488,2.7489,2.7604,2.7616,2.7627,2.7695,2.767,2.7676,2.7679,2.7847,2.7848,2.7849,0,0,0,0,0,0,2.7215,2.7233,2.7387,2.7322,2.7342,2.7403,2.7441,2.7451,2.7478,2.7542,2.7553,2.7504,2.7604,2.7619,2.7681,2.77,2.7678,2.7684,2.7846,2.7847,2.7849,2.7831,0,0,0,0,0,0,2.7209,2.7231,2.7252,2.7322,2.7346,2.7439,2.7443,2.7454,2.7488,2.749,2.756,2.757,2.7604,2.7672,2.7687,2.7708,2.7688,2.7844,2.7846,2.7848,2.783,2.7831,2.7833,0,0,0,0,0,2.7202,2.7241,2.7252,2.727,2.7373,2.744,2.7454,2.7493,2.7489,2.7511,2.7552,2.7568,2.7695,2.7678,2.7695,2.7718,2.7843,2.7846,2.7848,2.7829,2.7831,2.7833,0,0,0,0,0,0,2.7171,2.7251,2.7265,2.7328,2.7377,2.7447,2.7475,2.7493,2.7544,2.7544,2.7589,2.7605,2.7664,2.7697,2.7676,2.7773,2.777,2.7776,2.775,2.7752,2.7754,2.7744,2.7693,0,0,0,0,0,2.7171,2.722,2.7287,2.7337,2.7361,2.7413,2.7444,2.747,2.7522,2.7543,2.7589,2.7639,2.769,2.7723,2.7773,2.7835,2.785,2.7858,2.786,2.7861,2.7866,2.7901,2.7905,2.7857,2.7857,2.7857,0,0,2.7173,2.7223,2.7251,2.7332,2.7373,2.7421,2.7431,2.7482,2.7518,2.7551,2.7613,2.7648,2.7706,2.7768,2.7798,2.7798,2.7882,2.7864,2.7864,2.7869,2.7904,2.7908,2.7912,2.7859,2.7859,2.7859,0,0,2.7202,2.7244,2.729,2.7331,2.7394,2.7429,2.7439,2.7507,2.7532,2.7594,2.762,2.7664,2.7751,2.7792,2.7824,2.7868,2.7885,2.7884,2.7892,2.7926,2.7929,2.7933,2.7949,2.7954,2.7888,2.7888,2.7888,0,2.7196,2.7271,2.7312,2.7362,2.7397,2.7429,2.7476,2.7514,2.7589,2.7612,2.7611,2.7722,2.7764,2.7836,2.7847,2.7872,2.7886,2.7876,2.7925,2.793,2.7933,2.795,2.7955,2.7887,2.7887,2.7888,2.7888,0,2.7261,2.7312,2.7342,2.7415,2.7453,2.7501,2.7549,2.7583,2.7606,2.7641,2.7704,2.7755,2.7817,2.7836,2.7858,2.7912,2.791,2.7917,2.7914,2.7937,2.7953,2.7959,2.7887,2.7887,2.7887,2.7887,0,0,2.7274,2.7369,2.7379,2.7413,2.7484,2.7524,2.7574,2.7635,2.7663,2.7714,2.7757,2.783,2.7837,2.7873,2.79,2.793,2.7962,2.7933,2.7935,2.7937,2.8025,2.802,2.8026,2.7974,2.7975,2.7976,2.802,0,2.7312,2.7403,2.7441,2.7514,2.7562,2.7593,2.7637,2.7685,2.7719,2.7764,2.7802,2.7853,2.7858,2.788,2.7911,2.7952,2.798,2.7949,2.8014,2.8016,2.7999,2.8035,2.803,2.8069,2.8027,2.8028,2.8029,0,2.7369,2.742,2.7498,2.7564,2.7585,2.7624,2.7683,2.7726,2.7781,2.7804,2.7845,2.787,2.7924,2.7917,2.7991,2.7969,2.7998,2.8022,2.8024,2.8032,2.8024,2.8044,2.8082,2.8088,2.8039,2.8038,2.8037,0,2.7371,2.746,2.7518,2.7546,2.7624,2.765,2.7683,2.7738,2.7772,2.7824,2.7847,2.7903,2.7934,2.7978,2.8018,2.8009,2.8088,2.8085,2.8109,2.8108,2.8124,2.8123,2.8168,2.8142,2.8142,2.8142,2.8141,0,2.741,2.7456,2.752,2.7556,2.7609,2.7653,2.7704,2.774,2.7788,2.7831,2.7861,2.7901,2.7951,2.7997,2.8029,2.8086,2.8099,2.8119,2.8127,2.8117,2.8115,2.8137,2.8136,2.8143,2.8143,2.8143,2.8142,0,2.7422,2.7466,2.7532,2.76,2.7619,2.7655,2.7713,2.7749,2.7785,2.7839,2.7854,2.791,2.7966,2.801,2.8083,2.8104,2.8164,2.8173,2.8146,2.815,2.8171,2.8169,2.8233,2.8244,2.8209,2.821,2.821,0,2.7444,2.7481,2.7553,2.7584,2.7618,2.7668,2.7703,2.7747,2.7783,2.7848,2.7876,2.7935,2.7984,2.8072,2.8118,2.8174,2.8185,2.8203,2.8193,2.8182,2.8186,2.8183,2.8187,2.8205,2.8205,2.8205,2.8205,0,2.7479,2.7499,2.7549,2.7607,2.7649,2.7696,2.7745,2.7768,2.7821,2.7859,2.7917,2.7955,2.803,2.8088,2.8148,2.8183,2.8203,2.8208,2.8216,2.8207,2.819,2.82,2.815,2.8206,2.8206,2.8206,2.8206,2.8206,2.7497,2.7532,2.7588,2.7643,2.7684,2.7728,2.7766,2.7806,2.7855,2.7919,2.7942,2.8002,2.8056,2.814,2.8175,2.8222,2.8223,2.8236,2.8239,2.8241,2.8241,2.8182,2.8233,2.8233,2.8233,2.8233,2.8233,0,2.7535,2.7572,2.7622,2.7689,2.7732,2.7747,2.7801,2.7836,2.7889,2.7938,2.7986,2.8052,2.8108,2.8159,2.8218,2.8246,2.8256,2.826,2.8258,2.8266,2.8236,2.8223,2.825,2.825,2.825,2.825,2.825,2.825,2.7559,2.7618,2.7645,2.7724,2.7762,2.7821,2.7851,2.7892,2.7931,2.8005,2.8051,2.8084,2.8134,2.8197,2.8249,2.8262,2.8283,2.8284,2.8299,2.827,2.8268,2.8266,2.8254,2.8288,2.8288,2.8326,2.8326,2.8327]}]]